Regional Weather Roundup
Issued by NWS

Home | Current Version | Previous Version | Text Only | Print | Product List | Glossary On
Versions: 1 2 3 4 5 6 7 8 9 10 11 12 13 14 15 16 17 18 19 20 21 22 23 24 25 26 27 28 29 30 31 32 33 34 35 36 37 38 39 40 41 42 43 44 45 46 47 48 49 50
434
ASUS43 KDTX 262110
RWRMI
MICHIGAN HOURLY REGIONAL WEATHER ROUNDUP
NATIONAL WEATHER SERVICE DETROIT/PONTIAC MI
500 PM EDT MON JUN 26 2017

NOTE: "FAIR" INDICATES FEW OR NO CLOUDS BELOW 12,000 FEET WITH NO
SIGNIFICANT WEATHER AND/OR OBSTRUCTION TO VISIBILITY.

MIZ047>049-052>055-059>063-066>070-074>076-081>083-262200-
SOUTHEAST LOWER MICHIGAN

CITY           SKY/WX    TMP DP  RH WIND       PRES   REMARKS
ADRIAN         MOSUNNY   70  41  34 W15G21    30.01F
ALMA           SUNNY     67  43  42 SW18G25   29.98F
ANN ARBOR      CLOUDY    70  44  39 W13G28    29.98F
BAD AXE        CLOUDY    62  51  66 NW5       29.94F
CARO           MOSUNNY   66  45  46 W10G22    29.94S
DETROIT CITY   MOSUNNY   70  40  33 W18G26    29.96F
DETROIT        LGT RAIN  68  42  38 W13G22    29.99S
FLINT          MOSUNNY   69  41  36 W22G30    29.96F
GROSSE ILE     CLOUDY    71  43  35 W10G24    29.98S
HILLSDALE      PTSUNNY   68  39  34 W17G25    30.01S
HOWELL         PTSUNNY   68  36  30 W16G28    29.98F

CITY           SKY/WX    TMP DP  RH WIND       PRES   REMARKS
JACKSON        CLOUDY    67  43  41 W13G20    30.00F
LAMBERTVILLE   PTSUNNY   69  41  35 NW12G23   30.00S
LANSING        MOSUNNY   70  42  36 W16G25    29.99F
LAPEER         PTSUNNY   69  40  35 W14G24    29.96S
MASON          PTSUNNY   69  43  38 W14G24    29.99F
MONROE         PTSUNNY   68  41  37 W15G26    29.99F
MT. CLEMENS    MOSUNNY   71  41  34 W20G25    29.94F
PONTIAC        PTSUNNY   68  40  35 W16G29    29.96F
PORT HOPE        N/A     65  47  52 W10G20    29.91F
PORT HURON     MOSUNNY   66  43  42 W12G18    29.95F
TRI CITIES     PTSUNNY   67  48  50 W25G38    29.96S
MIDLAND        PTSUNNY   65  44  45 W17G25    29.95S
TROY           MOSUNNY   70  34  26 SW15G31   29.99F
SAGINAW HB     MOSUNNY   68  39  34 W21G26    29.94F
$$
MIZ043>046-050>051-056>058-064>065-071>073-077>080-262200-
SOUTHWEST LOWER MICHIGAN

CITY           SKY/WX    TMP DP  RH WIND       PRES   REMARKS
BATTLE CREEK   PTSUNNY   66  43  43 NW20G28   30.02F
BENTON HARBOR  SUNNY     69  45  41 NW10G18   30.03F
BIG RAPIDS     MOSUNNY   62  42  48 W13G25    29.98F
COLDWATER      PTSUNNY   70  39  32 NW13G20   30.01F
FREMONT        CLOUDY    58  43  57 W15       30.02S
HOLLAND        PTSUNNY   65  46  50 W14G22    30.03F
GRAND RAPIDS   PTSUNNY   65  44  46 W15G29    30.00F
IONIA          PTSUNNY   66  42  42 W14G29    29.99F
KALAMAZOO      MOSUNNY   70  37  29 W20       30.02F
LUDINGTON      CLOUDY    57  47  68 NW9       30.01F
MARSHALL       MOSUNNY   70  42  36 W20       30.00F
MOUNT PLEASANT MOSUNNY   64  42  44 W13G21    29.97F
MUSKEGON       CLOUDY    60  51  72 NW14      30.03S
SOUTH HAVEN    MOSUNNY   67  49  52 W14       30.02F
$$
MIZ016>042-262200-
NORTHERN LOWER MICHIGAN

CITY           SKY/WX    TMP DP  RH WIND       PRES   REMARKS
ALPENA         CLOUDY    62  52  69 W9G18     29.91F
BEAVER ISLAND  CLOUDY    56  53  90 N6        29.96R
BELLAIRE       CLOUDY    56  52  86 SW10G16   29.97S
CADILLAC       CLOUDY    57  45  62 SW9G16    29.98S
CHARLEVOIX     CLOUDY    60  54  79 W16       29.97F
FRANKFORT      CLOUDY    58  47  67 W7        29.99F
GAYLORD        CLOUDY    57  48  72 W18       29.95F
GRAYLING       CLOUDY    57  45  64 W10G17    29.96F
HARBOR SPRINGS CLOUDY    55  54  94 W7        29.94S
HOUGHTON LAKE  CLOUDY    59  44  57 W15       29.97F
MANISTEE       CLOUDY    59  46  63 W14       30.00S
OSCODA         MOSUNNY   71  43  36 W16G22    29.90S
PELLSTON       LGT RAIN  55  51  86 N8        29.94S FOG
ROGERS CITY    CLOUDY    56  53  89 W7        29.93R
TRAVERSE CITY  CLOUDY    56  51  84 W9G16     29.97S
$$
MIZ007>008-015-262200-
EASTERN UPPER MICHIGAN

CITY           SKY/WX    TMP DP  RH WIND       PRES   REMARKS
KINROSS        LGT RAIN  54  51  90 NW10      29.93S
MACKINAC ISLAN RAIN      54  54 100 NW3       29.93S
NEWBERRY       CLOUDY    52  51  97 NW7       29.96S
S. S. MARIE    LGT RAIN  56  52  86 W8        29.92F
MUNISING         N/A     52  46  80 NW15      30.00S
$$
MIZ004>006-011>014-085-262200-
CENTRAL UPPER MICHIGAN

CITY           SKY/WX    TMP DP  RH WIND       PRES   REMARKS
MANISTIQUE     CLOUDY    56  50  81 NW10      29.97S
ESCANABA       LGT RAIN  57  50  77 N6        30.00R
MENOMINEE      PTSUNNY   61  54  77 N9        30.01S
SAWYER-GWINN   MOSUNNY   61  46  59 N9        30.01S
$$
MIZ001>003-009>011-084-262200-
WESTERN UPPER MICHIGAN

CITY           SKY/WX    TMP DP  RH WIND       PRES   REMARKS
IRON MOUNTAIN  LGT RAIN  54  46  74 N8        30.02S
HOUGHTON       SUNNY     61  47  59 W15       30.01F
COPPER HARBOR    N/A     59  52  77 N16       29.99F
IRONWOOD       SUNNY     63  45  51 NW12      30.06F
$$

ABBREVIATIONS USED IN REMARKS
   TC - TEMPERATURE IN CELSIUS
  WCI - WIND CHILL INDEX
   HX - HEAT INDEX
  VSB - VISIBILITY





USA.gov is the U.S. government's official web portal to all federal, state and local government web resources and services.